Home > Weather > Beirut > Past weeks

Flag for Lebanon Weather for the Past 2 Weeks in Beirut, Lebanon

Now
66 °F

Light rain. Passing clouds.


Feels Like: 66 °F
Forecast: 63 / 69 °F
Wind: 5 mph from Southeast

Location: Beirut Airport

Current Time: May 6, 2016 at 6:38:14 AM

Latest Report: May 6, 2016 at 6:00 AM


Visibility: 5 mi

Pressure: 29.86 "Hg

Humidity: 73%

Dew Point: 57 °F

Location of BeirutLocation

Historic Weather in Beirut — Graph

°F

Beirut Temperature Yesterday

Maximum temperature yesterday: 75 °F (at 1:00 PM)
Minimum temperature yesterday: 64 °F (at 2:00 AM)
Average temperature yesterday: 70 °F

High & Low Weather Summary for the Past Weeks

 TemperatureHumidityPressure
High90 °F (Apr 21, 5:00 PM)88% (Apr 24, 12:00 AM)30.07 "Hg (Apr 24, 12:00 AM)
Low63 °F (Apr 24, 7:00 AM)16% (Apr 21, 5:00 PM)29.62 "Hg (Apr 25, 2:00 AM)
Average72 °F63%29.91 "Hg
* Reported Apr 21 5:00 AM — May 6 5:00 AM, Beirut, Weather by CustomWeather, © 2016

Note: Actual official high and low records may vary slightly from our data, if they occured in-between our weather recording intervals... More about our weather records

Advertising

Beirut Weather History for the Previous 24 Hours

Scroll right to see more
 ConditionsComfort  
Time TempWeatherWind HumidityBarometerVisibility
5:00 AM
Fri, May 6
66 °FPassing clouds.5 mph73%29.86 "Hg5 mi
4:00 AM66 °FPassing clouds.5 mph68%29.86 "Hg5 mi
3:00 AM66 °FPassing clouds.3 mph73%29.86 "Hg5 mi
2:00 AM68 °FPassing clouds.2 mph60%29.86 "Hg5 mi
1:00 AM68 °FPassing clouds.2 mph64%29.89 "Hg5 mi
12:00 AM68 °FPassing clouds.6 mph69%29.89 "Hg5 mi
11:00 PM
Thu, May 5
70 °FPassing clouds.5 mph57%29.89 "Hg5 mi
10:00 PM70 °FPassing clouds.5 mph60%29.92 "Hg5 mi
9:00 PM68 °FPassing clouds.6 mph69%29.95 "Hg5 mi
8:00 PM70 °FScattered clouds.8 mph64%29.92 "Hg5 mi
7:00 PM70 °FScattered clouds.10 mph64%29.92 "Hg5 mi
6:00 PM72 °FScattered clouds.9 mph61%29.92 "Hg5 mi
5:00 PM72 °FScattered clouds.9 mph61%29.92 "Hg5 mi
4:00 PM73 °FScattered clouds.13 mph61%29.95 "Hg5 mi
3:00 PM73 °FScattered clouds.14 mph61%29.95 "Hg5 mi
2:00 PM73 °FScattered clouds.16 mph61%29.95 "Hg5 mi
1:00 PM75 °FScattered clouds.16 mph57%29.95 "Hg5 mi
12:00 PM73 °FScattered clouds.15 mph61%29.95 "Hg5 mi
11:00 AM73 °FScattered clouds.16 mph61%29.95 "Hg5 mi
10:00 AM72 °FScattered clouds.14 mph61%29.95 "Hg5 mi
9:00 AM72 °FScattered clouds.14 mph61%29.95 "Hg5 mi
8:00 AM70 °FScattered clouds.10 mph60%29.95 "Hg5 mi
7:00 AM66 °FScattered clouds.2 mph68%29.92 "Hg5 mi
6:00 AM66 °FPassing clouds.3 mph64%29.92 "Hg5 mi
Weather by CustomWeather, © 2016

See weather overviewHow to use our weather pages